[[{"header":{"parameterUnit":"m.s-1","parameterCategory":1,"la1":30.2991,"la2":30.254,"lo1":-89.0895,"lo2":-89.0444,"dy":0.0017,"dx":0.0017,"nx":28,"ny":28,"refTime":"2023-08-14T21:00:00:Z","depth":0,"parameterNumber":2,"parameterNumberName":"U-component_of_WINDS"},"data":[0,0,0,0,0,0,0,0,0,0,0,0,0,0,0,0,0,0,0,0,0,0,0,0,0,0,0,0,0,0,0,0,0,0,0,0,0,0,0,0,0,0,0,0,0,0,0,0,0,0,0,0,0,0,0,0,0,0,-1.9303,-1.9304,0,-1.9458,-1.9459,-1.9461,-1.9431,-1.9428,-1.9426,-1.9423,-1.9582,-1.9588,-1.9595,0,0,0,0,0,0,0,0,0,0,0,0,0,-1.898,-1.8986,-1.9302,-1.9304,-1.9306,-1.9457,-1.946,-1.9462,-1.9432,-1.9428,-1.9425,-1.9422,-1.958,-1.9588,-1.9596,0,0,0,0,0,0,0,0,0,0,0,0,0,-1.9126,-1.8988,-1.9302,-1.931,-1.9312,-1.9457,-1.946,-1.9462,-1.9432,-1.9428,-1.9424,-1.942,-1.9577,-1.9587,-1.9597,-1.9744,0,0,-1.9628,-1.9633,0,0,0,0,0,0,0,0,-1.9117,-1.9138,-1.9307,-1.9309,-1.9312,-1.9421,-1.9404,-1.9557,-1.9434,-1.9387,-1.9423,-1.9418,-1.9532,-1.9545,-1.9584,-1.9752,-1.9759,-1.9629,-1.9635,-1.964,-1.9643,0,0,0,0,0,0,0,-1.9107,-1.9131,-1.9364,-1.9309,-1.9312,-1.9305,-1.9321,-1.9433,-1.9481,-1.939,-1.9389,-1.9407,-1.9532,-1.9574,-1.9587,-1.9761,-1.9629,-1.9638,-1.9644,-1.9648,-2.0058,-2.0063,0,0,0,0,0,0,-1.9095,-1.9123,-1.9359,-1.9368,-1.9202,-1.9314,-1.9332,-1.939,-1.948,-1.9489,-1.9411,-1.9405,-1.9558,-1.9575,-1.9593,-1.9772,-1.964,-1.9649,-1.9655,-2.0053,-2.0059,-2.0064,0,0,0,0,0,0,-1.9088,-1.9116,-1.9353,-1.9245,-1.9275,-1.9324,-1.939,-1.9395,-1.9437,-1.9495,-1.9503,-1.9445,-1.9556,-1.9578,-1.9707,-1.9777,-1.9654,-1.9663,-2.0048,-2.0055,-2.0062,-2.0132,0,0,0,0,0,0,-1.9079,-1.9114,-1.9171,-1.9247,-1.9281,-1.9465,-1.9394,-1.9401,-1.9455,-1.9449,-1.9529,-1.9538,-1.9554,-1.9692,-1.9717,-1.9789,-1.9671,-2.0042,-2.0051,-2.006,-2.0123,-2.014,-2.0155,0,0,0,0,0,-1.9067,-1.9184,-1.9174,-1.9202,-1.9353,-1.9469,-1.9488,-1.9505,-1.946,-1.9518,-1.9555,-1.9535,-1.9765,-1.9705,-1.9734,-1.981,-2.0038,-2.0049,-2.0059,-2.0116,-2.0137,-2.0154,0,0,0,0,0,0,-1.9115,-1.9194,-1.9184,-1.9328,-1.9392,-1.9464,-1.9537,-1.9526,-1.9604,-1.9595,-1.9612,-1.963,-1.9761,-1.9798,-1.973,-1.9957,-1.9895,-1.9912,-1.9929,-1.9949,-1.9964,-1.9954,-1.968,0,0,0,0,0,-1.9142,-1.9231,-1.9295,-1.9416,-1.9449,-1.9487,-1.9539,-1.9546,-1.9612,-1.9639,-1.9686,-1.9751,-1.9838,-1.9895,-1.9978,-2.0127,-2.0145,-2.0194,-2.0209,-2.0222,-2.0237,-2.0319,-2.0342,-2.0099,-2.0099,-2.0099,0,0,-1.92,-1.9254,-1.9309,-1.9427,-1.9477,-1.9568,-1.951,-1.9609,-1.9677,-1.9654,-1.9779,-1.9815,-1.9889,-2.0029,-2.0093,-2.0064,-2.0307,-2.0235,-2.0245,-2.0253,-2.0332,-2.0355,-2.0376,-2.0106,-2.0105,-2.0104,0,0,-1.9352,-1.9401,-1.9508,-1.956,-1.9637,-1.9661,-1.9687,-1.976,-1.9784,-1.9909,-1.9894,-1.9974,-2.0123,-2.0177,-2.0224,-2.0395,-2.038,-2.0421,-2.0504,-2.0584,-2.0603,-2.062,-2.0683,-2.0705,-2.0436,-2.0436,-2.0436,0,-1.9414,-1.9551,-1.9564,-1.9665,-1.9718,-1.9701,-1.981,-1.9859,-1.9959,-1.9996,-1.9961,-2.0148,-2.0196,-2.0349,-2.0391,-2.0428,-2.0459,-2.0414,-2.0599,-2.0617,-2.0633,-2.0692,-2.0716,-2.044,-2.044,-2.0439,-2.0439,0,-1.9624,-1.9719,-1.9796,-1.9893,-1.9954,-2.0058,-2.0088,-2.0148,-2.0149,-2.0177,-2.0305,-2.0362,-2.0457,-2.0493,-2.0495,-2.0647,-2.0626,-2.0595,-2.0534,-2.066,-2.0717,-2.0739,-2.0447,-2.0445,-2.0444,-2.0443,0,0,-1.9812,-1.9915,-1.9943,-1.9987,-2.007,-2.0144,-2.0247,-2.0339,-2.0391,-2.046,-2.0547,-2.0673,-2.0645,-2.0698,-2.0706,-2.0776,-2.0909,-2.0737,-2.0738,-2.0768,-2.108,-2.1104,-2.113,-2.0898,-2.0903,-2.0906,-2.1074,0,-1.9973,-2.0155,-2.017,-2.0334,-2.0423,-2.0407,-2.0497,-2.0557,-2.0586,-2.0665,-2.0696,-2.0786,-2.0741,-2.0773,-2.0842,-2.0878,-2.0972,-2.0866,-2.0981,-2.0985,-2.0965,-2.116,-2.1186,-2.1341,-2.1096,-2.11,-2.1103,0,-2.0185,-2.0261,-2.0434,-2.0505,-2.0542,-2.0623,-2.0709,-2.0784,-2.0852,-2.0868,-2.0927,-2.0925,-2.1031,-2.0963,-2.1109,-2.1037,-2.1084,-2.1109,-2.1115,-2.1128,-2.1053,-2.1179,-2.1391,-2.1415,-2.1137,-2.1134,-2.1132,0,-2.0307,-2.0452,-2.0575,-2.0613,-2.0698,-2.0755,-2.0793,-2.0857,-2.0911,-2.0986,-2.1022,-2.1108,-2.1155,-2.1222,-2.1243,-2.1191,-2.1388,-2.1322,-2.1405,-2.1405,-2.1449,-2.1447,-2.1674,-2.1476,-2.1476,-2.1476,-2.1475,0,-2.0487,-2.0593,-2.0631,-2.0706,-2.0825,-2.0841,-2.0958,-2.0993,-2.105,-2.1132,-2.1123,-2.12,-2.1222,-2.1303,-2.1319,-2.1438,-2.1459,-2.1475,-2.1479,-2.1478,-2.1476,-2.151,-2.1501,-2.1482,-2.148,-2.1479,-2.1478,0,-2.0644,-2.0673,-2.0806,-2.0875,-2.0895,-2.098,-2.104,-2.1112,-2.1139,-2.1243,-2.1268,-2.131,-2.1404,-2.1431,-2.1545,-2.1556,-2.1696,-2.1688,-2.1674,-2.1674,-2.1756,-2.1749,-2.2015,-2.2051,-2.1828,-2.183,-2.1832,0,-2.0758,-2.084,-2.0918,-2.0972,-2.1013,-2.11,-2.1156,-2.1174,-2.1232,-2.1316,-2.1378,-2.1472,-2.1548,-2.1699,-2.174,-2.1826,-2.1822,-2.1909,-2.1835,-2.1831,-2.1825,-2.1821,-2.183,-2.1924,-2.1926,-2.1928,-2.193,0,-2.0957,-2.0967,-2.1048,-2.1134,-2.1201,-2.127,-2.1335,-2.138,-2.1407,-2.1473,-2.157,-2.1629,-2.1744,-2.1837,-2.1925,-2.1963,-2.1952,-2.1952,-2.1976,-2.1977,-2.1966,-2.1974,-2.1714,-2.1947,-2.1945,-2.1944,-2.1943,-2.1942,-2.1097,-2.1169,-2.1236,-2.1326,-2.1377,-2.1439,-2.1511,-2.1546,-2.1628,-2.1724,-2.1729,-2.1834,-2.1899,-2.2015,-2.2059,-2.2141,-2.2115,-2.215,-2.2159,-2.2167,-2.2175,-2.1951,-2.2157,-2.2156,-2.2156,-2.2155,-2.2155,0,-2.1297,-2.1339,-2.1422,-2.1514,-2.1585,-2.1567,-2.1639,-2.17,-2.1792,-2.1854,-2.1929,-2.204,-2.213,-2.2177,-2.2266,-2.2323,-2.232,-2.2346,-2.2343,-2.2352,-2.2192,-2.2163,-2.2347,-2.2347,-2.2347,-2.2347,-2.2347,-2.2347,-2.1409,-2.1531,-2.1549,-2.1696,-2.1737,-2.184,-2.1883,-2.194,-2.1989,-2.2114,-2.2189,-2.2219,-2.2275,-2.2368,-2.2449,-2.2461,-2.2495,-2.2524,-2.2533,-2.2383,-2.2364,-2.2345,-2.2318,-2.2531,-2.2531,-2.2686,-2.2688,-2.2689]},{"header":{"parameterUnit":"m.s-1","parameterCategory":1,"la1":30.2991,"la2":30.254,"lo1":-89.0895,"lo2":-89.0444,"dy":0.0017,"dx":0.0017,"nx":28,"ny":28,"refTime":"2023-08-14T21:00:00:Z","depth":0,"parameterNumber":3,"parameterNumberName":"V-component_of_WINDS"},"data":[0,0,0,0,0,0,0,0,0,0,0,0,0,0,0,0,0,0,0,0,0,0,0,0,0,0,0,0,0,0,0,0,0,0,0,0,0,0,0,0,0,0,0,0,0,0,0,0,0,0,0,0,0,0,0,0,0,0,-4.0303,-4.0304,0,-4.0379,-4.038,-4.0381,-4.0345,-4.0344,-4.0342,-4.034,-4.0413,-4.0417,-4.0421,0,0,0,0,0,0,0,0,0,0,0,0,0,-4.0123,-4.0127,-4.0303,-4.0304,-4.0305,-4.0379,-4.038,-4.0381,-4.0346,-4.0344,-4.0341,-4.0339,-4.0412,-4.0417,-4.0421,0,0,0,0,0,0,0,0,0,0,0,0,0,-4.02,-4.0128,-4.0303,-4.0296,-4.0297,-4.0378,-4.038,-4.0381,-4.0346,-4.0343,-4.0341,-4.0338,-4.0411,-4.0416,-4.0422,-4.0513,0,0,-4.0439,-4.0441,0,0,0,0,0,0,0,0,-4.0196,-4.0207,-4.0296,-4.0297,-4.0297,-4.035,-4.0343,-4.0425,-4.0347,-4.0327,-4.034,-4.0337,-4.0394,-4.0401,-4.0421,-4.0516,-4.0519,-4.0439,-4.0443,-4.0445,-4.0447,0,0,0,0,0,0,0,-4.0191,-4.0204,-4.0333,-4.0298,-4.0298,-4.0288,-4.0296,-4.0359,-4.0376,-4.0329,-4.0326,-4.0336,-4.0394,-4.0416,-4.0423,-4.0521,-4.0439,-4.0444,-4.0447,-4.045,-4.0693,-4.0696,0,0,0,0,0,0,-4.0186,-4.0199,-4.033,-4.0335,-4.0239,-4.0294,-4.0303,-4.0336,-4.0375,-4.0378,-4.0338,-4.0334,-4.0408,-4.0416,-4.0425,-4.0534,-4.0445,-4.045,-4.0453,-4.069,-4.0693,-4.0697,0,0,0,0,0,0,-4.0182,-4.0198,-4.0327,-4.0267,-4.0282,-4.03,-4.0338,-4.0339,-4.0361,-4.0382,-4.0385,-4.0358,-4.0406,-4.0417,-4.0491,-4.0536,-4.0453,-4.0458,-4.0686,-4.0691,-4.0695,-4.0752,0,0,0,0,0,0,-4.0177,-4.0197,-4.0233,-4.0268,-4.0286,-4.0394,-4.034,-4.0342,-4.0371,-4.0366,-4.0401,-4.0405,-4.0405,-4.0483,-4.0497,-4.0542,-4.0462,-4.0682,-4.0688,-4.0694,-4.0747,-4.0759,-4.0769,0,0,0,0,0,-4.0171,-4.0246,-4.0235,-4.0251,-4.0331,-4.0397,-4.0407,-4.0406,-4.0375,-4.041,-4.0424,-4.0403,-4.0529,-4.0491,-4.0506,-4.0554,-4.0679,-4.0686,-4.0693,-4.0742,-4.0756,-4.0768,0,0,0,0,0,0,-4.0215,-4.025,-4.0239,-4.0327,-4.0359,-4.0391,-4.0435,-4.0422,-4.0463,-4.0456,-4.0453,-4.0461,-4.0538,-4.0553,-4.051,-4.0643,-4.0599,-4.0609,-4.0631,-4.0645,-4.0655,-4.065,-4.0467,0,0,0,0,0,-4.0235,-4.0286,-4.0314,-4.0389,-4.0406,-4.0418,-4.0446,-4.0443,-4.0476,-4.0489,-4.0508,-4.0539,-4.0585,-4.0616,-4.066,-4.0749,-4.0755,-4.0789,-4.08,-4.0809,-4.0817,-4.0865,-4.0879,-4.072,-4.072,-4.072,0,0,-4.0276,-4.0302,-4.0334,-4.0398,-4.0423,-4.0474,-4.0429,-4.0486,-4.0524,-4.0497,-4.0568,-4.0583,-4.0617,-4.0699,-4.0736,-4.0714,-4.0863,-4.0818,-4.0825,-4.0829,-4.0873,-4.0888,-4.0902,-4.0724,-4.0724,-4.0723,0,0,-4.0378,-4.0403,-4.0468,-4.0494,-4.0532,-4.054,-4.0555,-4.0589,-4.0598,-4.067,-4.065,-4.0694,-4.0775,-4.08,-4.0823,-4.0934,-4.0916,-4.0948,-4.1005,-4.1051,-4.1064,-4.1075,-4.1114,-4.1128,-4.0957,-4.0957,-4.0957,0,-4.0425,-4.0503,-4.0503,-4.0562,-4.059,-4.0569,-4.0633,-4.0658,-4.0708,-4.0727,-4.0702,-4.0802,-4.0824,-4.091,-4.0937,-4.0957,-4.0974,-4.0944,-4.1062,-4.1074,-4.1084,-4.1121,-4.1135,-4.0961,-4.096,-4.096,-4.0959,0,-4.0558,-4.0613,-4.066,-4.071,-4.0744,-4.0805,-4.0812,-4.0846,-4.084,-4.085,-4.0922,-4.0947,-4.0996,-4.1016,-4.101,-4.1102,-4.1087,-4.1063,-4.1018,-4.1103,-4.1137,-4.1151,-4.0966,-4.0964,-4.0963,-4.0963,0,0,-4.069,-4.0739,-4.0756,-4.0778,-4.0819,-4.086,-4.092,-4.0968,-4.0996,-4.1031,-4.108,-4.1148,-4.1126,-4.1152,-4.1149,-4.1189,-4.1274,-4.116,-4.116,-4.1179,-4.1375,-4.1393,-4.141,-4.1263,-4.1266,-4.1268,-4.1372,0,-4.0794,-4.09,-4.0901,-4.0998,-4.1048,-4.1028,-4.108,-4.1109,-4.112,-4.1162,-4.1173,-4.1221,-4.1188,-4.1204,-4.1243,-4.1256,-4.1314,-4.1248,-4.1307,-4.1309,-4.1299,-4.1428,-4.1447,-4.1545,-4.1386,-4.1388,-4.139,0,-4.093,-4.0971,-4.1073,-4.1106,-4.1126,-4.1173,-4.1217,-4.1258,-4.1291,-4.1295,-4.1325,-4.1315,-4.1374,-4.1328,-4.1408,-4.1364,-4.1388,-4.1398,-4.1401,-4.1406,-4.1354,-4.1436,-4.1576,-4.159,-4.1411,-4.1409,-4.1408,0,-4.1015,-4.1095,-4.1167,-4.1186,-4.1226,-4.1259,-4.1277,-4.1306,-4.1335,-4.1373,-4.1391,-4.1435,-4.1459,-4.1492,-4.1494,-4.1461,-4.1575,-4.1529,-4.1579,-4.1579,-4.1604,-4.1602,-4.1749,-4.162,-4.162,-4.162,-4.162,0,-4.1132,-4.1195,-4.1205,-4.1249,-4.1319,-4.1318,-4.1387,-4.1401,-4.1428,-4.1473,-4.1458,-4.15,-4.1501,-4.1543,-4.1545,-4.1611,-4.1622,-4.1626,-4.1626,-4.1627,-4.1627,-4.1643,-4.1636,-4.1624,-4.1623,-4.1622,-4.1621,0,-4.1238,-4.1248,-4.1324,-4.1356,-4.1365,-4.1415,-4.1441,-4.1482,-4.1491,-4.1548,-4.1561,-4.1575,-4.1624,-4.163,-4.1687,-4.1688,-4.1767,-4.176,-4.1757,-4.1755,-4.1805,-4.18,-4.1967,-4.1988,-4.1846,-4.1847,-4.1849,0,-4.1312,-4.136,-4.1397,-4.1427,-4.1446,-4.1495,-4.1524,-4.1525,-4.1556,-4.1596,-4.1632,-4.168,-4.1719,-4.1798,-4.1812,-4.1856,-4.1849,-4.1904,-4.1855,-4.1855,-4.1849,-4.1846,-4.185,-4.1914,-4.1915,-4.1917,-4.1918,0,-4.1441,-4.1443,-4.1487,-4.1532,-4.1568,-4.1604,-4.1637,-4.1662,-4.1667,-4.1702,-4.1753,-4.1783,-4.1842,-4.189,-4.1932,-4.1949,-4.1934,-4.1933,-4.1947,-4.1949,-4.1945,-4.1947,-4.1782,-4.1929,-4.1928,-4.1927,-4.1927,-4.1926,-4.1532,-4.1574,-4.1606,-4.1655,-4.1681,-4.1712,-4.1752,-4.1766,-4.1809,-4.1858,-4.1856,-4.1912,-4.1941,-4.1997,-4.2017,-4.206,-4.2041,-4.2061,-4.2066,-4.2071,-4.2076,-4.1939,-4.2067,-4.2067,-4.2067,-4.2066,-4.2066,0,-4.166,-4.168,-4.1725,-4.1773,-4.1811,-4.1795,-4.183,-4.1863,-4.1913,-4.1943,-4.1981,-4.2039,-4.2085,-4.2103,-4.2147,-4.2178,-4.2172,-4.2189,-4.2187,-4.2191,-4.209,-4.2074,-4.2193,-4.2193,-4.2193,-4.2193,-4.2193,-4.2193,-4.1731,-4.18,-4.1806,-4.1888,-4.1906,-4.1962,-4.1984,-4.2012,-4.2036,-4.2102,-4.214,-4.2152,-4.2176,-4.2222,-4.2263,-4.2267,-4.2284,-4.2304,-4.2305,-4.2211,-4.2198,-4.2186,-4.217,-4.2308,-4.2308,-4.2402,-4.2403,-4.2403]}]]